TimeCDT,TemperatureF,Dew PointF,Humidity,Sea Level PressureIn,VisibilityMPH,Wind Direction,Wind SpeedMPH,Gust SpeedMPH,PrecipitationIn,Events,Conditions,WindDirDegrees,DateUTC
12:33 AM,42.8,41.0,93,29.41,2.5,NW,26.5,33.4,N/A,,Drizzle,320,2012-10-19 05:33:00
12:52 AM,42.8,41.0,93,29.42,4.0,NW,23.0,33.4,N/A,,Drizzle,310,2012-10-19 05:52:00
1:12 AM,42.8,41.0,93,29.43,4.0,NW,23.0,34.5,N/A,,Drizzle,320,2012-10-19 06:12:00
1:33 AM,42.8,41.0,93,29.43,3.0,NW,23.0,27.6,N/A,,Drizzle,320,2012-10-19 06:33:00
1:52 AM,42.8,41.0,93,29.44,5.0,NW,21.9,28.8,0.01,Rain,Light Rain,320,2012-10-19 06:52:00
2:12 AM,42.8,41.0,93,29.45,4.0,NW,23.0,31.1,0.01,Rain,Light Rain,320,2012-10-19 07:12:00
2:32 AM,42.8,41.0,93,29.46,3.0,NW,21.9,27.6,0.01,Rain,Light Rain,320,2012-10-19 07:32:00
2:52 AM,42.8,41.0,93,29.47,4.0,NW,24.2,27.6,0.01,Rain,Light Rain,320,2012-10-19 07:52:00
3:13 AM,42.8,41.0,93,29.47,4.0,NW,21.9,26.5,0.01,Rain,Light Rain,320,2012-10-19 08:13:00
3:33 AM,42.8,41.0,93,29.48,4.0,NW,20.7,29.9,0.01,Rain,Rain,320,2012-10-19 08:33:00
3:52 AM,42.8,41.0,93,29.48,3.0,NW,21.9,27.6,0.01,Rain,Rain,320,2012-10-19 08:52:00
4:13 AM,42.8,41.0,93,29.49,3.0,NW,21.9,34.5,N/A,Rain,Rain,320,2012-10-19 09:13:00
4:33 AM,42.8,41.0,93,29.51,2.5,NW,21.9,29.9,N/A,Rain,Light Rain,320,2012-10-19 09:33:00
4:52 AM,42.8,41.0,93,29.51,2.5,NW,24.2,31.1,N/A,Rain,Rain,320,2012-10-19 09:52:00
5:13 AM,42.8,41.0,93,29.52,3.0,NW,23.0,27.6,N/A,,Light Drizzle,320,2012-10-19 10:13:00
5:32 AM,41.0,41.0,100,29.53,4.0,NW,20.7,27.6,N/A,,Light Drizzle,320,2012-10-19 10:32:00
5:52 AM,41.0,41.0,100,29.54,4.0,NW,19.6,28.8,N/A,,Overcast,320,2012-10-19 10:52:00
6:13 AM,41.0,41.0,100,29.54,7.0,NW,21.9,31.1,N/A,,Overcast,320,2012-10-19 11:13:00
6:33 AM,41.0,39.2,93,29.55,7.0,NW,21.9,-,N/A,,Overcast,320,2012-10-19 11:33:00
6:52 AM,41.0,41.0,100,29.56,3.0,NW,17.3,26.5,N/A,,Overcast,320,2012-10-19 11:52:00
7:13 AM,41.0,41.0,100,29.57,2.5,NW,19.6,24.2,N/A,,Drizzle,320,2012-10-19 12:13:00
7:33 AM,41.0,41.0,100,29.57,2.5,NW,19.6,25.3,N/A,Rain,Light Rain,320,2012-10-19 12:33:00
7:52 AM,41.0,39.2,93,29.58,2.0,NW,19.6,24.2,N/A,,Drizzle,310,2012-10-19 12:52:00
8:13 AM,41.0,39.2,93,29.58,2.5,NW,21.9,25.3,N/A,,Drizzle,320,2012-10-19 13:13:00
8:33 AM,41.0,39.2,93,29.59,2.0,NW,17.3,27.6,N/A,,Light Drizzle,310,2012-10-19 13:33:00
8:52 AM,41.0,39.2,93,29.59,1.5,NW,24.2,28.8,N/A,,Drizzle,310,2012-10-19 13:52:00
9:13 AM,41.0,39.2,93,29.59,1.8,NW,23.0,31.1,N/A,,Drizzle,310,2012-10-19 14:13:00
9:33 AM,41.0,39.2,93,29.61,1.2,NW,21.9,32.2,N/A,,Drizzle,320,2012-10-19 14:33:00
9:52 AM,41.0,41.0,100,29.61,1.5,NW,28.8,34.5,N/A,,Drizzle,310,2012-10-19 14:52:00
10:13 AM,41.0,39.2,93,29.63,2.0,NW,24.2,29.9,N/A,Rain,Light Rain,310,2012-10-19 15:13:00
10:33 AM,41.0,39.2,93,29.64,1.8,NW,26.5,31.1,N/A,,Drizzle,310,2012-10-19 15:33:00
10:52 AM,42.8,39.2,87,29.64,2.0,NW,24.2,32.2,N/A,,Light Drizzle,310,2012-10-19 15:52:00
11:13 AM,41.0,41.0,100,29.64,2.0,NW,26.5,32.2,N/A,,Drizzle,320,2012-10-19 16:13:00
11:33 AM,42.8,41.0,93,29.65,10.0,NW,23.0,32.2,N/A,,Drizzle,310,2012-10-19 16:33:00
11:52 AM,42.8,41.0,93,29.65,10.0,NW,25.3,33.4,N/A,Rain,Light Rain,320,2012-10-19 16:52:00
12:13 PM,42.8,41.0,93,29.66,10.0,NW,23.0,32.2,N/A,Rain,Light Rain,320,2012-10-19 17:13:00
12:33 PM,42.8,41.0,93,29.66,10.0,NW,24.2,29.9,N/A,Rain,Light Rain,320,2012-10-19 17:33:00
12:52 PM,42.8,41.0,93,29.66,10.0,NW,25.3,28.8,N/A,Rain,Light Rain,320,2012-10-19 17:52:00
1:13 PM,42.8,41.0,93,29.66,10.0,NW,24.2,31.1,N/A,Rain,Light Rain,310,2012-10-19 18:13:00
1:33 PM,42.8,41.0,93,29.65,10.0,NW,20.7,-,N/A,Rain,Light Rain,310,2012-10-19 18:33:00
1:52 PM,42.8,41.0,93,29.66,10.0,NW,21.9,26.5,N/A,Rain,Light Rain,310,2012-10-19 18:52:00
2:13 PM,42.8,41.0,93,29.66,10.0,NW,21.9,28.8,N/A,Rain,Light Rain,320,2012-10-19 19:13:00
2:33 PM,42.8,41.0,93,29.66,10.0,NW,20.7,27.6,N/A,Rain,Light Rain,310,2012-10-19 19:33:00
2:52 PM,42.8,41.0,93,29.67,10.0,NW,21.9,-,N/A,Rain,Light Rain,310,2012-10-19 19:52:00
3:13 PM,42.8,41.0,93,29.67,10.0,NW,21.9,26.5,N/A,Rain,Light Rain,310,2012-10-19 20:13:00
3:33 PM,42.8,41.0,93,29.67,10.0,NW,24.2,-,N/A,,Light Drizzle,320,2012-10-19 20:33:00
3:52 PM,42.8,41.0,93,29.68,10.0,NW,20.7,27.6,N/A,,Overcast,310,2012-10-19 20:52:00
4:13 PM,42.8,41.0,93,29.68,10.0,NW,19.6,27.6,N/A,,Overcast,320,2012-10-19 21:13:00
4:33 PM,42.8,41.0,93,29.68,10.0,NW,19.6,24.2,N/A,,Overcast,320,2012-10-19 21:33:00
4:52 PM,42.8,41.0,93,29.69,10.0,NW,19.6,25.3,N/A,,Overcast,320,2012-10-19 21:52:00
5:13 PM,42.8,41.0,93,29.70,10.0,NW,17.3,-,N/A,,Overcast,320,2012-10-19 22:13:00
5:32 PM,42.8,41.0,93,29.70,10.0,NW,15.0,19.6,N/A,,Overcast,310,2012-10-19 22:32:00
5:53 PM,42.8,41.0,93,29.72,10.0,NW,13.8,-,N/A,,Overcast,310,2012-10-19 22:53:00
6:13 PM,42.8,41.0,93,29.72,10.0,WNW,11.5,-,N/A,,Overcast,300,2012-10-19 23:13:00
6:32 PM,42.8,41.0,93,29.73,4.0,NW,15.0,19.6,N/A,,Overcast,310,2012-10-19 23:32:00
6:53 PM,42.8,41.0,93,29.73,10.0,NW,11.5,17.3,N/A,,Overcast,310,2012-10-19 23:53:00
7:13 PM,42.8,41.0,93,29.73,10.0,NW,9.2,-,N/A,,Overcast,310,2012-10-20 00:13:00
7:32 PM,42.8,41.0,93,29.73,10.0,NW,13.8,-,N/A,,Overcast,320,2012-10-20 00:32:00
7:53 PM,42.8,41.0,93,29.73,10.0,NW,13.8,-,N/A,,Overcast,310,2012-10-20 00:53:00
8:13 PM,42.8,41.0,93,29.74,10.0,NW,11.5,-,N/A,,Overcast,320,2012-10-20 01:13:00
8:32 PM,42.8,41.0,93,29.74,10.0,NW,9.2,-,N/A,,Overcast,320,2012-10-20 01:32:00
8:53 PM,42.8,41.0,93,29.75,10.0,WNW,12.7,-,N/A,,Overcast,300,2012-10-20 01:53:00
9:13 PM,42.8,39.2,87,29.75,10.0,WNW,13.8,-,N/A,,Overcast,300,2012-10-20 02:13:00
9:32 PM,42.8,39.2,87,29.75,10.0,NW,11.5,-,N/A,,Overcast,320,2012-10-20 02:32:00
9:53 PM,42.8,39.2,87,29.74,10.0,NW,4.6,-,N/A,,Overcast,320,2012-10-20 02:53:00
10:13 PM,42.8,39.2,87,29.75,10.0,NW,4.6,-,N/A,,Overcast,310,2012-10-20 03:13:00
10:32 PM,42.8,39.2,87,29.75,10.0,NW,3.5,-,N/A,,Overcast,310,2012-10-20 03:32:00
10:53 PM,42.8,39.2,87,29.75,10.0,NW,6.9,-,N/A,,Overcast,310,2012-10-20 03:53:00
11:13 PM,42.8,39.2,87,29.76,10.0,WNW,4.6,-,N/A,,Overcast,300,2012-10-20 04:13:00
11:32 PM,42.8,39.2,87,29.75,10.0,WNW,5.8,-,N/A,,Overcast,300,2012-10-20 04:32:00
11:53 PM,41.0,39.2,93,29.75,10.0,WNW,4.6,-,N/A,,Overcast,300,2012-10-20 04:53:00